STARLINK-32510, 62040

Orbit data source: Space-Track

STARLINK-32510, 62040 is a payload satellite owned by SpaceX/Seattle (US) in LEO that was launched on Thu, 21 Nov 2024 UTC via an FALCON 9 launch vehicle from the Air Force Eastern Test Range (AFETR). Payloads include a variety of satellites, spacecraft, and rockets equipped with specific instruments for various scientific and technological missions. These include communications satellites like Starlink; space stations such as the ISS; scientific satellites like the Hubble; Earth observation satellites from companies like Planet Labs, Umbra, and HawkEye 360; GPS; miniature CubeSats for education and research; and military/defense satellites.

Loading next visibility...
STARLINK-32510 details
Identifier
62040, 2024-216J
Orbit
LEO
Last TLE update6 hours ago
Origin
Flag of USSpaceX/Seattle (US)
ManufacturerSpaceX/Seattle
MissionOperational spacecraft
Bus & MotorSTARLINK V2M, Unknown motor
Mass730 kg wet, ~700 kg dry
Launch date (UTC)
2024-11-21 (1 month ago)
Launch vehicle
FALCON 9
Launch site
Air Force Eastern Test Range (AFETR)
Object type
Payload
Rocket body
Debris
Shape & HBRUnknown
Radar Cross SectionLarge (>1 m²)

Expand to show TLE details & history

TLE from 6 hours ago
0 STARLINK-32510
1 62040U 24216J   24361.16668981 -.01476777  00000-0 -36617-1 0  9993
2 62040  42.9996 233.3986 0001720 269.2226  32.2656 15.42625565  6490
Epoch: 2024-12-26T04:00Z
Definitive object data (Epoch: 2024-12-26T04:00:01.999Z)
Latitude-35.73185°
Longitude28.13639°
Altitude447.66 km
Speed7.645 km/s
True Right ascension12h 13m 10s
True Declination-35° 33' 42"
Sunlit
Object was in daylight at TLE epoch
Visualization TLE readout
Latitude-43.14992°
Longitude-14.63023°
Altitude452.896 km
Speed7.642 km/s
Apparent Right ascension06h 41m 32s
Apparent Declination-89° 12' 05"
Sunlit
Object is in daylight
Visualization observer readout
Local Sidereal Time09:25:46
Azimuth180.678° SSW
Elevation-39.312°
Doppler factor1
Orbital elements
Apogee altitude441.495 km
Perigee altitude439.149 km
Semi-major axis6,818.459 km
Eccentricity0.000172
Inclination42.9996°
RAAN233.3986°
Arg. of periapsis269.2226°
True anomaly32.27612°
Mean anomaly32.2656°
Eccentric anomaly32.27086°
Mean motion3.85491 °/min
BSTAR-0.036617
Orbital period93.39 mins
Loading maneuver chart data...
Loading historical data...
Loading historical data...
Loading historical data...
Loading historical data...
Loading historical data...
Loading historical data...
Loading historical data...

STARLINK-32510 Visibility forecast

Observer location: undefined°, undefined

Span
Click to sort rows by Start time (UTC) header in descending order
Start Az.
Max El. time (UTC)
Max El. Az.
Max El.
End time (UTC)
End Az.
4 mins2024-12-26 18:26:39.206Z183.188° SSW2024-12-26 18:28:39.206Z140.027° SSE18.871°2024-12-26 18:30:39.206Z101.405° ESE
5 mins2024-12-26 20:04:39.206Z248.701° W2024-12-26 20:06:39.206Z77.275° E42.301°2024-12-26 20:09:39.206Z72.25° E
5 mins2024-12-26 21:42:39.206Z293.302° NW2024-12-26 21:44:39.206Z11.438° NNE36.898°2024-12-26 21:47:39.206Z74.19° E
5 mins2024-12-26 23:20:39.206Z291.65° WNW2024-12-26 23:22:39.206Z346.811° N44.141°2024-12-26 23:25:39.206Z102.247° ESE
4 mins2024-12-27 00:59:39.206Z241.627° WSW2024-12-27 01:00:39.206Z213.001° SW24.2°2024-12-27 01:03:39.206Z153.49° SSE
|